Location: Hoyos del Collado
(40.3594°N, 5.2003°W)
Time: 03:05:41
(UTC+00:00)

Cosmos 1763 Rocket - Pass Details

Date: 18 April 2024
Orbit: 730 x 778 km, 74.0° (Epoch: 25 May)

Event Time Altitude Azimuth Distance (km) Brightness Sun altitude
Exits shadow 20:58:07 41° 99° (E) 1,058 3.8 -20.5°
Drops below altitude 10° 21:02:47 10° 33° (NNE) 2,261 6.0 -21.2°
Sets 21:05:16 0° 27° (NNE) 3,196 6.9 -21.6°
